Lid_Strength_Index
-1 -1 -1 -1 -1 -1 -2 -1 -1 -1 -1 -0 -0 1 1 0 3 9 11 7 4 1 2 7 8 8 8 10 9 11 15 17 17 16 15 13 14 13 12 12 10 8 10 7 4
-1 -1 -1 -1 -1 -1 -1 -1 -1 -1 -0 0 1 1 1 1 9 10 6 1 1 1 7 9 10 9 10 11 11 13 15 15 15 16 16 14 14 14 13 13 12 9 7 5 4
-1 -1 -1 -1 -1 -1 -1 -1 -1 -1 0 0 0 0 1 5 10 11 3 1 1 3 7 8 9 9 12 12 12 13 15 14 14 13 14 13 14 14 15 15 13 11 7 5 4
-1 -1 -1 -1 -1 -1 -1 -1 -1 -1 0 0 0 0 2 8 14 10 3 2 2 6 9 10 10 12 13 14 12 15 13 13 12 12 13 14 13 14 14 13 11 10 5 6 4
-1 -1 -1 -1 -1 -1 -1 -1 -1 -0 -0 -0 1 1 7 11 12 8 4 5 7 8 10 11 12 13 14 13 13 14 14 12 13 12 13 13 15 15 14 13 8 5 5 6 6
-1 -1 -1 -1 -1 -1 -1 -1 -1 -0 -0 0 0 3 10 13 9 9 8 7 8 9 10 10 12 12 13 13 14 13 13 13 12 12 13 14 15 14 15 12 7 6 6 6 6
-1 -1 -1 -1 -1 -1 -1 -1 -1 -0 0 1 1 8 11 12 10 8 8 8 8 9 11 10 10 11 13 14 12 13 15 14 13 12 13 13 15 16 14 12 9 8 7 6 6
-1 -1 -1 -1 -1 -1 -1 -1 -0 -0 -0 0 2 10 13 9 9 8 8 8 7 8 9 10 9 11 12 12 12 15 15 17 14 13 13 14 17 14 14 15 14 13 12 11 11
-1 -1 -1 -1 0 -0 -0 -0 1 0 1 3 8 11 13 6 9 8 8 9 8 8 9 7 10 12 12 15 16 14 19 17 15 13 14 14 16 14 14 14 15 15 14 13 12
-0 0 -0 1 0 0 0 1 2 4 7 7 8 10 10 11 9 8 8 8 9 9 10 10 12 15 16 17 21 18 17 16 16 14 15 16 15 14 15 14 15 15 14 13 13
0 0 1 1 1 2 5 7 9 10 10 12 12 12 11 9 8 9 9 9 8 10 14 11 15 19 17 16 15 16 16 17 15 15 17 17 17 15 15 16 15 15 14 14 13
0 1 1 2 1 3 8 11 11 10 13 10 10 10 10 9 11 9 8 11 12 14 12 14 17 14 14 14 15 15 16 17 15 15 17 18 17 16 16 16 15 15 15 14 13
1 1 1 1 2 6 8 9 7 8 13 12 10 11 11 10 12 11 10 11 14 16 16 16 15 13 14 15 15 17 17 18 18 17 18 19 18 18 16 15 14 14 14 13 12
1 1 2 1 6 8 9 6 6 8 18 15 12 10 9 10 12 9 9 11 13 15 15 15 13 14 15 16 16 16 16 16 16 19 22 18 23 18 16 15 15 14 14 14 13
2 2 2 3 8 9 8 7 7 10 24 14 12 8 10 11 12 10 9 10 14 15 15 15 15 15 16 16 15 16 15 16 17 22 23 22 26 20 17 17 16 15 14 14 13
3 2 3 6 7 8 7 7 10 18 25 18 14 14 14 13 13 12 12 11 12 14 15 16 15 15 16 15 15 16 18 19 20 25 28 28 26 22 19 17 16 16 15 14 14
3 4 5 7 9 8 8 10 17 22 17 17 16 14 15 15 14 14 15 16 17 21 21 17 16 15 15 16 15 17 22 27 27 28 26 32 26 19 17 16 16 15 14 14 14
3 5 7 8 9 8 10 15 22 23 21 14 14 14 16 15 16 15 15 18 16 17 22 24 23 18 15 16 17 18 22 25 30 28 26 30 25 19 16 16 16 15 15 14 14
4 9 10 9 8 9 13 20 21 18 14 15 15 19 19 16 17 17 18 18 16 17 20 23 21 16 15 15 16 18 24 20 29 36 30 26 22 17 16 17 16 16 15 15 15
8 11 12 9 10 12 16 19 20 15 14 14 17 18 24 21 19 20 20 16 16 15 17 18 23 20 16 16 16 18 18 23 26 29 32 28 32 21 21 20 19 16 16 16 15
11 13 11 10 11 14 19 24 19 14 14 15 17 20 18 21 19 21 19 17 16 17 16 20 23 22 18 23 23 22 23 23 23 23 28 30 25 22 22 24 22 20 17 18 17
13 15 11 11 15 27 23 22 14 14 14 14 15 16 19 18 19 23 19 18 15 17 18 16 19 25 23 20 18 18 21 20 24 27 27 26 25 21 24 27 28 20 19 18 17
16 17 13 12 19 24 20 18 15 15 15 15 16 16 17 21 22 18 18 15 14 16 17 17 24 28 22 22 20 21 19 20 23 21 26 27 22 23 27 25 23 22 18 19 18
16 17 16 16 18 18 21 20 18 15 15 15 15 15 17 22 19 22 18 16 15 16 12 15 19 24 24 23 25 23 21 19 22 28 22 24 19 17 16 22 19 19 20 18 19
17 19 18 21 20 18 18 18 19 19 16 15 18 16 18 23 22 24 18 17 16 14 16 18 26 23 23 24 25 23 21 22 23 20 24 19 25 18 16 16 17 24 21 19 18
17 17 19 21 17 18 17 18 19 19 16 18 20 17 17 22 19 21 19 18 19 18 18 18 27 26 27 22 21 23 20 20 21 20 23 20 20 16 18 29 23 19 19 18 18
15 15 16 17 18 19 19 18 17 17 16 16 16 17 18 17 17 17 17 17 17 19 19 23 27 30 30 27 27 26 25 23 24 26 23 25 21 29 19 17 21 18 20 18 17